Location: Unspecified
(45.6669°N, 0.0000°E)
Time: 17:14:42
(UTC+00:00)

ISS - Pass Details

Date: 27 May 2019
Orbit: 407 x 418 km, 51.6° (Epoch: 25 June)

Event Time Altitude Azimuth Distance (km) Brightness Sun altitude
Rises 22:55:02 0° 298° (WNW) 2,362 0.7 -21.5°
Reaches altitude 10° 22:57:08 10° 297° (WNW) 1,498 -0.4 -21.6°
Enters shadow 22:59:37 46° 287° (WNW) 573 -3.0 -21.7°
